Theta_e
319 318 318 318 317 317 318 318 318 316 316 319 320 321 320 321 320 319 320 322 322 323 324 324 323 324 324 324 324 322 320 319 318 316 313 311 307 307 307 307 306 307 306
318 317 316 317 317 316 316 317 317 316 316 315 317 316 318 319 319 318 317 319 320 321 322 323 324 324 324 323 323 322 320 319 319 316 309 306 308 307 307 307 306 306 306
320 317 316 315 317 317 316 316 316 316 315 315 315 315 316 317 317 317 317 317 317 316 314 316 319 321 324 323 323 322 320 320 319 316 314 310 311 308 309 308 307 306 305
321 319 318 314 316 316 316 315 315 316 315 315 316 315 315 315 315 316 316 316 316 316 315 319 320 321 323 324 324 324 323 321 319 311 310 311 311 309 310 308 310 308 307
322 320 318 315 315 316 316 315 315 315 315 315 316 316 315 314 314 315 315 314 315 316 316 317 320 321 322 323 324 324 323 321 319 316 311 309 308 309 309 306 307 309 309
322 320 319 317 315 316 315 315 316 315 315 314 315 317 316 315 314 314 316 316 317 318 317 318 319 320 322 324 324 324 324 323 322 318 317 314 311 309 308 306 306 305 306
322 321 319 317 316 316 316 315 315 315 315 313 314 316 317 315 314 314 315 316 319 321 322 321 320 320 323 324 322 322 324 323 323 320 317 314 312 313 310 309 306 303 303
322 322 320 318 317 316 316 315 314 314 315 315 314 315 316 316 314 314 315 317 319 321 322 322 320 321 325 324 323 320 323 323 323 321 315 312 313 312 310 309 304 301 301
323 323 321 319 318 317 316 315 315 314 314 315 314 314 314 316 316 316 316 317 319 320 321 323 321 320 323 324 322 322 323 323 322 317 313 313 312 309 308 305 304 302 300
323 323 322 321 319 318 317 316 315 315 314 314 314 314 314 315 316 316 317 319 321 323 323 323 322 322 324 324 321 323 323 321 318 315 312 310 308 306 304 303 302 302 302
322 323 323 323 321 320 319 318 316 316 316 315 314 314 314 315 316 318 319 320 324 325 324 324 324 323 324 323 324 323 321 318 316 312 309 308 307 305 303 302 302 301 299
320 321 322 324 322 321 320 320 319 318 318 317 317 316 317 318 319 320 321 322 323 325 325 325 324 321 323 323 320 320 318 315 311 310 307 306 304 302 302 301 299 299 299
316 319 320 322 323 323 322 321 321 321 320 321 320 321 322 322 322 322 323 323 324 324 323 325 325 324 322 319 319 318 316 313 310 309 306 305 303 302 301 299 298 297 297
315 316 318 321 323 324 324 324 323 322 322 322 323 323 324 324 323 324 324 324 325 324 322 325 324 323 321 319 316 314 311 310 309 306 306 303 302 301 300 299 298 296 296
313 315 317 318 319 321 324 325 325 325 324 324 324 324 325 325 325 325 325 325 324 324 325 324 323 322 320 317 313 312 309 307 305 304 302 301 300 300 298 298 296 295 293
312 313 317 318 319 319 320 321 323 325 325 325 325 325 325 325 326 325 325 323 323 324 322 322 320 318 316 314 312 310 306 305 303 301 300 299 298 298 297 295 294 292 290
312 311 316 319 321 323 323 321 321 322 326 326 325 325 326 325 323 324 324 321 319 320 319 318 317 314 312 310 308 306 304 303 301 300 299 297 296 295 293 293 291 290 287
312 310 310 318 321 325 327 325 324 324 325 325 324 323 323 322 319 319 317 315 315 317 315 312 311 309 307 306 304 303 302 300 299 298 297 296 293 293 292 290 288 284 281
311 309 311 320 323 326 327 326 324 325 325 323 322 320 320 316 315 313 311 312 312 309 309 308 306 306 304 303 302 300 298 297 296 295 293 291 290 288 286 283 281 281 282
310 316 320 323 323 322 324 323 319 319 318 317 316 316 315 314 311 311 311 311 310 309 306 304 303 302 301 299 298 298 297 295 292 290 288 288 286 282 280 280 282 282 281
318 320 321 321 321 320 321 316 314 314 315 316 316 314 313 313 313 310 307 304 303 301 299 298 297 297 297 297 296 296 296 294 289 287 285 282 280 279 280 282 281 280 279
317 319 317 316 317 318 317 311 311 312 313 312 310 308 308 308 306 305 301 300 299 297 295 294 292 292 293 293 294 292 291 289 287 283 280 279 279 280 281 280 279 278 277
314 316 314 311 313 314 315 310 308 309 307 306 305 304 304 303 303 302 299 297 297 293 289 288 286 285 285 285 287 287 285 283 281 279 278 279 280 280 279 278 277 276 275
311 312 311 310 308 311 311 311 307 307 306 303 302 301 301 299 299 299 298 297 294 291 288 285 283 282 282 282 282 282 280 279 278 278 278 279 279 278 277 276 275 274 274
310 311 310 307 304 306 307 306 306 306 302 300 298 297 297 297 294 293 293 293 292 294 290 287 285 283 281 281 280 279 278 278 278 278 278 278 277 276 275 275 274 273 272
308 306 305 303 302 303 303 303 304 304 300 294 293 292 291 289 287 286 284 286 289 290 290 288 287 283 282 278 278 278 278 278 278 278 276 275 274 274 274 273 272 271 271
Wind_Speed
5 12 10 11 12 15 19 25 25 27 25 31 31 27 23 26 29 31 20 21 22 19 17 15 14 15 17 21 24 26 25 23 19 14 14 17 18 19 19 18 17 16 15
8 10 14 14 16 17 18 20 26 31 31 31 26 20 26 28 29 34 30 21 18 16 16 16 15 17 18 20 23 26 26 24 20 10 4 1 8 20 23 21 20 20 19
11 12 16 17 16 20 21 21 24 28 29 32 28 24 24 21 21 27 31 23 22 19 16 19 20 19 21 22 24 27 28 26 21 21 9 2 4 0 9 19 20 20 22
8 8 13 16 19 19 21 21 26 29 28 30 27 25 22 23 24 29 30 27 23 25 22 23 21 22 26 26 27 29 31 29 24 21 16 9 7 4 2 5 12 17 19
12 12 13 20 23 20 24 24 28 31 29 29 32 28 26 22 25 26 30 31 29 29 29 29 27 28 29 31 31 31 31 30 26 24 12 12 11 9 3 4 6 7 15
12 11 15 18 21 24 24 27 29 34 37 34 35 34 34 34 30 31 33 33 33 33 35 34 35 34 33 37 30 27 28 26 26 30 28 23 11 10 8 4 8 7 12
13 12 13 17 21 25 27 29 31 31 34 38 40 40 41 42 39 40 37 36 35 35 36 36 37 36 38 36 27 28 29 27 31 32 33 33 25 18 16 12 5 7 7
15 16 17 22 26 29 31 32 32 34 35 39 42 43 41 40 43 39 37 37 37 37 34 34 35 36 36 33 27 26 27 28 28 32 33 26 24 20 21 15 9 2 5
17 19 17 26 26 29 35 37 34 34 36 38 35 35 37 38 35 37 36 35 38 38 37 35 36 38 38 36 27 25 28 28 29 29 25 25 19 18 15 12 11 7 2
16 16 16 24 30 34 34 32 34 35 31 30 36 37 39 42 40 39 38 35 36 36 38 37 34 35 40 34 28 28 27 27 26 25 24 20 19 15 13 9 7 9 10
16 17 18 28 31 29 31 31 34 33 33 38 40 43 45 51 44 37 37 38 33 36 34 32 28 27 30 28 27 26 28 27 27 24 23 23 20 17 15 11 8 9 9
17 17 18 24 26 32 31 36 37 37 42 42 42 45 40 38 35 36 38 39 40 35 34 39 38 30 32 30 27 30 31 30 28 27 25 23 19 17 12 8 6 8 10
7 11 12 14 23 30 32 36 39 43 46 43 41 39 39 35 37 36 36 40 44 44 36 36 32 31 30 29 32 35 30 30 29 27 24 22 21 15 13 8 4 9 14
10 10 9 14 22 30 35 36 40 44 44 43 42 40 39 39 38 40 41 43 38 40 40 35 31 30 29 30 33 30 28 27 25 22 21 21 18 16 12 10 7 12 14
8 9 12 13 14 22 29 33 37 37 38 39 40 42 38 37 39 38 40 37 36 37 37 32 31 30 28 29 30 29 26 25 23 22 19 17 16 10 9 9 9 10 9
10 12 12 11 12 22 28 32 33 34 34 36 39 36 35 36 37 35 32 33 34 34 32 32 30 27 28 28 27 26 25 24 23 24 18 18 11 12 10 8 9 8 8
11 11 13 15 16 24 26 28 31 29 32 32 29 32 32 30 28 32 32 30 32 33 31 27 25 26 25 22 21 21 21 21 19 19 20 14 11 10 7 8 9 11 14
10 9 9 13 21 21 22 22 22 26 26 25 25 26 28 27 26 26 27 28 27 27 26 23 23 23 20 19 19 18 17 17 17 17 14 13 10 7 9 9 12 13 13
12 10 10 14 22 26 26 21 18 21 22 21 23 25 28 27 27 27 27 26 25 21 21 21 22 23 21 20 19 19 20 19 16 13 10 8 5 5 9 10 11 12 13
5 8 16 16 20 21 24 22 20 20 19 21 21 23 25 28 28 27 26 23 22 22 20 20 18 19 22 20 20 19 19 18 15 11 7 6 5 6 6 6 7 9 12
6 15 17 16 20 24 25 20 21 18 21 22 22 23 24 25 27 26 24 24 22 24 23 22 18 19 19 18 17 16 16 16 13 9 5 3 4 4 3 3 3 6 11
6 13 13 15 22 26 27 20 16 20 22 23 23 22 21 20 20 21 22 23 26 27 25 24 22 20 19 18 15 13 11 9 7 5 3 2 3 2 1 2 5 7 11
5 12 14 15 19 23 24 19 21 25 24 22 20 19 18 18 20 23 24 24 26 27 22 22 22 20 17 15 13 10 6 4 2 1 1 0 1 2 2 3 5 9 13
4 8 14 10 11 18 19 22 25 25 25 25 23 23 23 22 20 21 22 24 24 23 22 21 21 21 16 12 9 6 4 2 2 2 2 2 3 2 3 6 8 11 13
5 10 9 9 11 15 16 20 24 27 25 24 24 24 25 25 23 18 17 19 19 24 28 25 26 24 16 10 8 6 4 3 3 4 5 4 1 3 4 6 8 11 12
6 10 13 15 16 17 18 21 25 29 31 27 25 26 27 25 27 30 29 19 13 13 15 17 19 14 14 11 7 7 6 5 4 5 4 2 2 3 2 5 6 8 10
Wind_Direction
181 163 153 167 167 175 180 185 180 175 177 166 171 178 182 171 166 172 194 195 195 184 191 194 201 210 219 220 221 218 220 218 215 212 224 233 235 231 230 231 233 236 247
169 163 169 180 177 174 175 174 182 185 178 183 192 192 191 183 177 189 215 208 200 203 213 218 218 221 218 219 218 217 217 221 216 196 165 246 247 239 237 235 231 235 242
188 177 176 185 174 179 182 181 177 181 188 183 197 201 201 198 204 193 221 223 222 232 233 234 232 239 236 233 229 223 226 229 221 214 192 128 238 203 228 236 237 242 240
184 178 183 188 188 186 187 190 188 187 192 194 200 203 202 211 214 219 225 230 232 239 247 249 247 248 243 240 241 238 234 233 226 214 225 206 167 202 251 233 235 243 248
188 186 190 186 193 197 202 200 200 195 196 203 208 209 216 221 223 228 228 231 242 245 249 254 255 253 246 247 250 247 236 234 231 215 201 208 181 172 136 244 212 255 264
194 190 187 187 189 198 205 205 205 208 209 212 209 216 219 225 229 228 231 233 239 244 245 248 252 253 254 244 247 253 251 242 246 241 233 221 201 203 183 201 235 222 251
191 190 181 186 188 194 202 208 208 208 207 207 210 213 220 226 228 230 233 237 243 248 250 250 252 251 255 244 249 256 250 235 246 238 241 231 224 233 219 221 234 234 248
196 198 195 194 191 196 202 204 208 213 213 210 211 212 216 220 225 230 234 240 247 251 257 259 255 254 244 245 252 253 243 249 240 238 235 223 238 231 212 218 189 196 242
196 203 196 199 194 198 205 206 208 215 217 217 217 219 222 223 226 231 239 247 254 259 263 263 254 252 247 248 252 241 237 237 236 234 224 231 218 212 218 224 223 184 213
199 204 204 198 201 203 206 206 210 215 216 217 219 221 223 228 231 234 237 243 254 260 262 261 257 254 248 241 240 238 232 233 230 226 220 208 203 203 209 201 222 243 239
198 200 205 205 202 204 204 206 210 211 214 218 218 222 223 224 228 230 234 241 251 257 252 250 250 251 247 242 236 232 228 225 221 214 206 205 206 206 200 211 247 255 249
203 201 204 201 195 201 202 204 208 207 214 221 219 223 230 234 232 230 227 233 248 255 255 248 243 248 244 234 234 226 223 218 211 208 205 203 197 201 209 226 245 281 293
219 204 198 195 197 200 203 207 208 211 215 216 221 226 228 229 227 225 223 233 238 243 248 244 242 240 230 230 232 225 219 215 212 210 204 203 197 201 193 196 266 303 300
208 202 196 198 200 203 204 208 213 214 214 213 216 221 224 225 224 224 226 233 232 230 236 234 239 232 227 224 221 216 214 213 211 204 207 204 204 190 212 221 283 299 292
202 204 202 205 200 202 207 211 216 215 212 212 214 219 219 220 223 222 224 227 226 227 231 223 221 222 221 218 212 211 209 202 199 202 197 204 186 213 206 235 273 284 292
214 208 207 201 199 203 206 207 212 212 204 205 210 212 210 211 220 220 216 216 217 220 218 214 212 209 212 212 211 209 200 196 198 193 193 188 194 203 224 240 269 273 293
222 207 200 206 206 206 205 204 209 207 201 200 200 200 201 203 205 211 216 212 208 211 206 203 204 205 207 205 200 198 194 192 197 195 184 184 192 207 220 256 261 281 292
226 231 196 201 213 209 206 207 203 198 195 196 198 198 200 200 203 206 201 200 200 194 191 191 194 197 192 188 187 186 187 183 178 180 184 193 194 228 248 269 285 297 306
219 219 224 189 187 195 201 193 182 180 180 183 189 187 190 182 186 185 183 184 179 179 180 185 183 184 174 176 176 172 167 163 160 169 176 183 199 246 274 292 303 309 317
194 181 167 162 173 178 184 175 169 168 166 171 171 173 175 177 174 180 175 174 178 179 176 170 174 170 161 164 168 173 170 161 161 166 172 207 235 265 294 305 323 327 323
177 155 152 156 170 175 177 162 165 167 173 179 183 185 185 183 181 175 175 170 164 157 154 148 146 153 160 165 174 180 183 176 167 171 182 221 270 298 312 308 325 329 312
149 148 139 152 170 177 171 158 163 177 179 179 180 179 178 176 173 169 159 158 156 152 149 143 134 136 145 157 166 163 169 166 176 178 212 264 288 291 235 265 307 309 320
164 159 150 142 164 174 177 155 165 168 166 165 160 158 158 159 163 162 157 153 158 152 138 136 133 132 133 129 144 151 149 161 164 194 215 143 231 174 236 307 318 327 343
135 138 137 145 143 172 174 175 165 166 162 154 153 155 152 148 152 155 160 160 157 150 149 143 140 144 137 131 132 134 133 135 136 142 160 187 187 239 324 325 335 340 346
163 147 128 115 113 150 155 165 166 164 149 142 143 141 138 137 127 127 145 157 166 179 168 166 165 156 144 142 150 159 167 176 178 171 174 176 220 344 344 334 337 338 342
64 82 98 107 111 131 142 157 165 167 154 136 136 139 136 132 127 119 100 103 131 161 168 165 167 148 144 138 131 125 104 114 163 165 155 121 31 358 334 330 333 337 336